IGO128 VOCI-VABB

Flight info

Callsign IGO128
Flight time 1h 36m
Altitude 38000
Route CLC1B CLC M300 MOLRU Q12 KABSO/N0438F390 Q12 BBB
Aircraft A20N/M-SDE2E3FGHIRWXY/LB1

Departure

Time 2026-05-06 02:38
Airport Cochin International Airport (VOCI)

Arrival

Time 2026-05-06 04:14
Airport Chhatrapati Shivaji Maharaj International Airport (VABB)
Time Latitude Longitude Altitude Speed Heading
2026-05-06 02:21 10.15431 76.39019 37 ft 0 kts 354°
2026-05-06 02:29 10.15424 76.39020 37 ft 1 kts 354°
2026-05-06 02:29 10.15412 76.39021 35 ft 2 kts 354°
2026-05-06 02:29 10.15397 76.39023 34 ft 3 kts 354°
2026-05-06 02:30 10.15379 76.39025 36 ft 3 kts 356°
2026-05-06 02:30 10.15361 76.39023 33 ft 3 kts 27°
2026-05-06 02:30 10.15347 76.39012 35 ft 3 kts 60°
2026-05-06 02:30 10.15342 76.38995 34 ft 3 kts 84°
2026-05-06 02:31 10.15341 76.38991 34 ft 0 kts 85°
2026-05-06 02:33 10.15341 76.38992 34 ft 1 kts 85°
2026-05-06 02:33 10.15304 76.39061 37 ft 9 kts 165°
2026-05-06 02:34 10.15251 76.39035 37 ft 10 kts 247°
2026-05-06 02:34 10.15244 76.38955 37 ft 13 kts 268°
2026-05-06 02:34 10.15241 76.38851 37 ft 16 kts 268°
2026-05-06 02:34 10.15236 76.38725 37 ft 19 kts 267°
2026-05-06 02:35 10.15231 76.38595 37 ft 14 kts 271°
2026-05-06 02:35 10.15211 76.38514 37 ft 2 kts 202°
2026-05-06 02:35 10.15177 76.38508 36 ft 8 kts 178°
2026-05-06 02:35 10.15158 76.38508 36 ft 0 kts 178°
2026-05-06 02:36 10.15155 76.38509 36 ft 2 kts 177°
2026-05-06 02:37 10.15112 76.38511 36 ft 11 kts 175°
2026-05-06 02:37 10.15059 76.38567 36 ft 13 kts 92°
2026-05-06 02:37 10.15059 76.38579 36 ft 0 kts 89°
2026-05-06 02:37 10.15070 76.38898 37 ft 93 kts 88°
2026-05-06 02:38 10.15104 76.39837 40 ft 169 kts 88°
2026-05-06 02:38 10.15155 76.41136 648 ft 185 kts 88°
2026-05-06 02:38 10.15269 76.42465 1549 ft 197 kts 75°
2026-05-06 02:38 10.15855 76.43749 2473 ft 205 kts 51°
2026-05-06 02:39 10.16918 76.44703 3581 ft 202 kts 31°
2026-05-06 02:39 10.17853 76.45679 4729 ft 189 kts 62°
2026-05-06 02:39 10.18622 76.46687 5492 ft 190 kts 30°
2026-05-06 02:39 10.20008 76.46926 6052 ft 219 kts 356°
2026-05-06 02:40 10.21626 76.46850 6763 ft 244 kts
2026-05-06 02:40 10.23435 76.46852 7166 ft 281 kts 359°
2026-05-06 02:40 10.25563 76.46706 7018 ft 330 kts 356°
2026-05-06 02:40 10.27951 76.46321 7003 ft 357 kts 350°
2026-05-06 02:41 10.30303 76.45809 6995 ft 332 kts 345°
2026-05-06 02:41 10.32340 76.44997 6999 ft 305 kts 334°
2026-05-06 02:41 10.34016 76.43865 6997 ft 281 kts 320°
2026-05-06 02:41 10.35266 76.42453 6995 ft 258 kts 305°
2026-05-06 02:42 10.36039 76.40891 7003 ft 242 kts 290°
2026-05-06 02:42 10.36461 76.39216 7032 ft 250 kts 285°
2026-05-06 02:42 10.36884 76.37433 7181 ft 272 kts 285°
2026-05-06 02:42 10.37351 76.35484 7729 ft 290 kts 285°
2026-05-06 02:43 10.37829 76.33469 8460 ft 296 kts 285°
2026-05-06 02:43 10.38310 76.31424 8803 ft 299 kts 285°
2026-05-06 02:43 10.38791 76.29373 8953 ft 300 kts 285°
2026-05-06 02:43 10.39275 76.27303 8990 ft 300 kts 285°
2026-05-06 02:44 10.39756 76.25243 8993 ft 300 kts 285°
2026-05-06 02:44 10.40241 76.23171 9017 ft 301 kts 285°
2026-05-06 02:44 10.40858 76.21141 9358 ft 302 kts 300°
2026-05-06 02:44 10.42174 76.19548 10186 ft 298 kts 325°
2026-05-06 02:45 10.44027 76.18538 10706 ft 314 kts 339°
2026-05-06 02:45 10.46147 76.17696 10974 ft 338 kts 341°
2026-05-06 02:45 10.48403 76.16854 11512 ft 350 kts 341°
2026-05-06 02:45 10.50705 76.15993 12310 ft 355 kts 341°
2026-05-06 02:46 10.53037 76.15108 13071 ft 360 kts 340°
2026-05-06 02:46 10.55405 76.14198 13799 ft 366 kts 340°
2026-05-06 02:46 10.57798 76.13273 14487 ft 370 kts 339°
2026-05-06 02:46 10.60223 76.12333 15192 ft 373 kts 339°
2026-05-06 02:47 10.62668 76.11384 15875 ft 377 kts 339°
2026-05-06 02:47 10.65128 76.10429 16559 ft 380 kts 338°
2026-05-06 02:47 10.67613 76.09465 17224 ft 384 kts 338°
2026-05-06 02:47 10.70114 76.08494 17866 ft 387 kts 338°
2026-05-06 02:48 10.72646 76.07511 18446 ft 391 kts 338°
2026-05-06 02:48 10.75164 76.06537 18998 ft 394 kts 339°
2026-05-06 02:48 10.77835 76.05719 19561 ft 397 kts 344°
2026-05-06 02:48 10.80507 76.04972 20096 ft 400 kts 343°
2026-05-06 02:49 10.83174 76.04221 20640 ft 404 kts 343°
2026-05-06 02:49 10.85892 76.03454 21171 ft 407 kts 343°
2026-05-06 02:49 10.88633 76.02679 21696 ft 410 kts 343°
2026-05-06 02:49 10.91391 76.01900 22217 ft 413 kts 343°
2026-05-06 02:50 10.94180 76.01112 22746 ft 417 kts 343°
2026-05-06 02:50 10.96984 76.00319 23251 ft 420 kts 343°
2026-05-06 02:50 10.99813 75.99519 23709 ft 423 kts 343°
2026-05-06 02:50 11.02665 75.98711 24118 ft 426 kts 343°
2026-05-06 02:51 11.05532 75.97900 24527 ft 429 kts 344°
2026-05-06 02:51 11.07448 75.97357 24789 ft 431 kts 344°
2026-05-06 02:51 11.11257 75.96039 25322 ft 434 kts 333°
2026-05-06 02:51 11.13770 75.94396 25682 ft 437 kts 320°
2026-05-06 02:52 11.15255 75.92954 25927 ft 438 kts 311°
2026-05-06 02:52 11.17674 75.89647 26396 ft 442 kts 304°
2026-05-06 02:52 11.18873 75.87918 26646 ft 444 kts 304°
2026-05-06 02:52 11.20676 75.85355 26978 ft 447 kts 308°
2026-05-06 02:53 11.23560 75.82324 27425 ft 452 kts 320°
2026-05-06 02:53 11.25263 75.81037 27656 ft 454 kts 327°
2026-05-06 02:53 11.28033 75.79467 27979 ft 456 kts 334°
2026-05-06 02:53 11.30848 75.78044 28295 ft 459 kts 333°
2026-05-06 02:54 11.33714 75.76586 28618 ft 462 kts 333°
2026-05-06 02:54 11.36593 75.75118 28919 ft 464 kts 333°
2026-05-06 02:54 11.39484 75.73642 29227 ft 467 kts 334°
2026-05-06 02:54 11.42407 75.72149 29548 ft 469 kts 334°
2026-05-06 02:55 11.45332 75.70656 29859 ft 472 kts 334°
2026-05-06 02:55 11.48271 75.69155 30147 ft 474 kts 334°
2026-05-06 02:55 11.51233 75.67643 30428 ft 476 kts 334°
2026-05-06 02:55 11.54201 75.66127 30706 ft 478 kts 334°
2026-05-06 02:56 11.57182 75.64605 31017 ft 479 kts 334°
2026-05-06 02:56 11.60169 75.63078 31374 ft 479 kts 334°
2026-05-06 02:56 11.63104 75.61578 31763 ft 478 kts 334°
2026-05-06 02:56 11.66091 75.60051 32159 ft 477 kts 334°
2026-05-06 02:57 11.69026 75.58528 32538 ft 476 kts 332°
2026-05-06 02:57 11.71951 75.56921 32922 ft 475 kts 332°
2026-05-06 02:57 11.74726 75.55369 33284 ft 475 kts 332°
2026-05-06 02:57 11.77121 75.54028 33584 ft 474 kts 332°
2026-05-06 02:58 11.80022 75.52413 33935 ft 473 kts 332°
2026-05-06 02:58 11.82911 75.50811 34251 ft 472 kts 332°
2026-05-06 02:58 11.85789 75.49219 34562 ft 471 kts 332°
2026-05-06 02:58 11.88676 75.47625 34866 ft 470 kts 332°
2026-05-06 02:59 11.91554 75.46036 35165 ft 469 kts 332°
2026-05-06 02:59 11.94427 75.44449 35465 ft 469 kts 332°
2026-05-06 02:59 11.97296 75.42865 35771 ft 468 kts 332°
2026-05-06 02:59 12.00160 75.41281 36076 ft 467 kts 332°
2026-05-06 03:00 12.03018 75.39702 36367 ft 464 kts 332°
2026-05-06 03:00 12.08603 75.36562 36208 ft 460 kts 330°
2026-05-06 03:01 12.14238 75.33412 36054 ft 464 kts 332°
2026-05-06 03:01 12.17100 75.31860 36196 ft 467 kts 332°
2026-05-06 03:01 12.19968 75.30310 36472 ft 467 kts 332°
2026-05-06 03:01 12.22837 75.28744 36785 ft 466 kts 332°
2026-05-06 03:02 12.25690 75.27174 37079 ft 465 kts 332°
2026-05-06 03:02 12.28536 75.25600 37373 ft 465 kts 332°
2026-05-06 03:02 12.31378 75.24024 37651 ft 464 kts 332°
2026-05-06 03:02 12.34217 75.22449 37838 ft 464 kts 332°
2026-05-06 03:03 12.37046 75.20879 37880 ft 462 kts 332°
2026-05-06 03:03 12.42693 75.17744 37883 ft 462 kts 332°
2026-05-06 03:04 12.48346 75.14605 37879 ft 462 kts 332°
2026-05-06 03:04 12.53965 75.11484 37879 ft 462 kts 332°
2026-05-06 03:05 12.59528 75.08393 37886 ft 462 kts 332°
2026-05-06 03:05 12.65198 75.05239 37876 ft 461 kts 332°
2026-05-06 03:06 12.70795 75.02126 37881 ft 460 kts 332°
2026-05-06 03:06 12.76434 74.98988 37885 ft 461 kts 332°
2026-05-06 03:07 12.82063 74.95855 37889 ft 460 kts 332°
2026-05-06 03:07 12.87694 74.92719 37891 ft 460 kts 332°
2026-05-06 03:08 12.93312 74.89589 37895 ft 460 kts 331°
2026-05-06 03:08 12.99078 74.86758 37888 ft 459 kts 336°
2026-05-06 03:09 13.04896 74.84091 37886 ft 458 kts 336°
2026-05-06 03:09 13.10681 74.81432 37883 ft 458 kts 336°
2026-05-06 03:10 13.16499 74.78758 37879 ft 458 kts 335°
2026-05-06 03:10 13.22310 74.76086 37873 ft 457 kts 335°
2026-05-06 03:11 13.28126 74.73410 37866 ft 458 kts 335°
2026-05-06 03:11 13.33943 74.70733 37873 ft 458 kts 335°
2026-05-06 03:12 13.39764 74.68052 37869 ft 458 kts 335°
2026-05-06 03:12 13.45593 74.65367 37866 ft 459 kts 335°
2026-05-06 03:13 13.51384 74.62697 37863 ft 459 kts 335°
2026-05-06 03:13 13.57212 74.60009 37867 ft 460 kts 335°
2026-05-06 03:14 13.63062 74.57308 37874 ft 460 kts 335°
2026-05-06 03:14 13.68917 74.54605 37870 ft 461 kts 335°
2026-05-06 03:15 13.74776 74.51895 37879 ft 462 kts 335°
2026-05-06 03:15 13.80644 74.49180 37884 ft 462 kts 335°
2026-05-06 03:16 13.86479 74.46482 37884 ft 463 kts 335°
2026-05-06 03:16 13.92349 74.43765 37881 ft 463 kts 335°
2026-05-06 03:17 13.98226 74.41045 37884 ft 463 kts 335°
2026-05-06 03:17 14.04105 74.38321 37884 ft 463 kts 335°
2026-05-06 03:18 14.09963 74.35606 37882 ft 461 kts 335°
2026-05-06 03:18 14.15812 74.32894 37885 ft 460 kts 335°
2026-05-06 03:19 14.21647 74.30186 37884 ft 459 kts 335°
2026-05-06 03:19 14.27427 74.27402 37883 ft 458 kts 334°
2026-05-06 03:20 14.35977 74.23106 37884 ft 456 kts 334°
2026-05-06 03:20 14.41691 74.20259 37873 ft 455 kts 334°
2026-05-06 03:21 14.47386 74.17425 37873 ft 454 kts 334°
2026-05-06 03:21 14.53072 74.14595 37868 ft 453 kts 334°
2026-05-06 03:22 14.58747 74.11768 37864 ft 452 kts 334°
2026-05-06 03:22 14.64409 74.08947 37865 ft 452 kts 334°
2026-05-06 03:23 14.70069 74.06124 37862 ft 451 kts 334°
2026-05-06 03:23 14.75680 74.03325 37864 ft 451 kts 334°
2026-05-06 03:24 14.81339 74.00499 37863 ft 451 kts 334°
2026-05-06 03:24 14.86996 73.97674 37868 ft 452 kts 334°
2026-05-06 03:25 14.92654 73.94846 37872 ft 452 kts 334°
2026-05-06 03:25 14.98317 73.92014 37877 ft 452 kts 333°
2026-05-06 03:26 15.03994 73.89173 37881 ft 453 kts 333°
2026-05-06 03:26 15.09665 73.86334 37887 ft 453 kts 333°
2026-05-06 03:27 15.15346 73.83489 37883 ft 453 kts 333°
2026-05-06 03:27 15.20972 73.80669 37886 ft 452 kts 333°
2026-05-06 03:28 15.26640 73.77826 37889 ft 453 kts 333°
2026-05-06 03:28 15.32301 73.74985 37890 ft 452 kts 333°
2026-05-06 03:29 15.37965 73.72141 37890 ft 452 kts 333°
2026-05-06 03:29 15.43629 73.69295 37884 ft 452 kts 333°
2026-05-06 03:30 15.49291 73.66448 37883 ft 451 kts 333°
2026-05-06 03:30 15.54938 73.63607 37881 ft 451 kts 333°
2026-05-06 03:31 15.60554 73.60780 37887 ft 451 kts 333°
2026-05-06 03:31 15.66197 73.57937 37886 ft 451 kts 333°
2026-05-06 03:32 15.71849 73.55089 37882 ft 451 kts 333°
2026-05-06 03:32 15.77488 73.52246 37888 ft 451 kts 333°
2026-05-06 03:33 15.83138 73.49421 37888 ft 450 kts 333°
2026-05-06 03:33 15.88779 73.46583 37890 ft 450 kts 333°
2026-05-06 03:34 15.94371 73.43753 37885 ft 450 kts 333°
2026-05-06 03:34 16.00011 73.40897 37887 ft 450 kts 333°
2026-05-06 03:35 16.05645 73.38042 37887 ft 450 kts 333°
2026-05-06 03:35 16.11274 73.35189 37886 ft 450 kts 333°
2026-05-06 03:36 16.16903 73.32335 37899 ft 450 kts 333°
2026-05-06 03:36 16.22530 73.29481 37895 ft 450 kts 333°
2026-05-06 03:37 16.28162 73.26623 37892 ft 450 kts 333°
2026-05-06 03:37 16.33791 73.23763 37890 ft 450 kts 333°
2026-05-06 03:38 16.39386 73.20919 37893 ft 450 kts 333°
2026-05-06 03:38 16.44996 73.18064 37894 ft 448 kts 333°
2026-05-06 03:39 16.50604 73.15210 37894 ft 448 kts 333°
2026-05-06 03:39 16.55268 73.12834 37894 ft 448 kts 333°
2026-05-06 03:40 16.60817 73.09897 37895 ft 447 kts 328°
2026-05-06 03:40 16.66235 73.06707 37895 ft 448 kts 329°
2026-05-06 03:41 16.71682 73.03535 37898 ft 448 kts 329°
2026-05-06 03:41 16.77105 73.00383 37895 ft 449 kts 329°
2026-05-06 03:42 16.82583 72.97198 37899 ft 448 kts 329°
2026-05-06 03:42 16.87994 72.94046 37898 ft 448 kts 329°
2026-05-06 03:43 16.93430 72.90878 37894 ft 447 kts 329°
2026-05-06 03:43 16.98871 72.87705 37898 ft 448 kts 329°
2026-05-06 03:44 17.04332 72.84571 37896 ft 449 kts 333°
2026-05-06 03:44 17.10269 72.82544 37895 ft 451 kts 348°
2026-05-06 03:45 17.16528 72.82147 37849 ft 452 kts
2026-05-06 03:45 17.19675 72.82242 37474 ft 450 kts 360°
2026-05-06 03:45 17.22800 72.82327 36935 ft 450 kts 359°
2026-05-06 03:46 17.25945 72.82410 36562 ft 454 kts 359°
2026-05-06 03:46 17.29124 72.82493 36104 ft 459 kts 359°
2026-05-06 03:46 17.32321 72.82579 35653 ft 460 kts 359°
2026-05-06 03:46 17.35516 72.82666 35214 ft 460 kts 359°
2026-05-06 03:47 17.38726 72.82753 34773 ft 461 kts 359°
2026-05-06 03:47 17.41898 72.82840 34349 ft 463 kts 359°
2026-05-06 03:47 17.45123 72.82928 33927 ft 464 kts 359°
2026-05-06 03:47 17.48362 72.83016 33404 ft 465 kts 359°
2026-05-06 03:48 17.51596 72.83105 32880 ft 464 kts 359°
2026-05-06 03:48 17.54821 72.83193 32371 ft 463 kts 359°
2026-05-06 03:48 17.58040 72.83281 31868 ft 463 kts 359°
2026-05-06 03:48 17.61260 72.83369 31370 ft 463 kts 359°
2026-05-06 03:49 17.64482 72.83456 30884 ft 463 kts 359°
2026-05-06 03:49 17.67704 72.83544 30404 ft 462 kts 359°
2026-05-06 03:49 17.70909 72.83632 29929 ft 459 kts 359°
2026-05-06 03:49 17.74080 72.83719 29378 ft 454 kts 359°
2026-05-06 03:50 17.77227 72.83805 28833 ft 449 kts 359°
2026-05-06 03:50 17.80330 72.83890 28304 ft 444 kts 360°
2026-05-06 03:50 17.83415 72.83974 27780 ft 441 kts 360°
2026-05-06 03:50 17.86462 72.84057 27270 ft 437 kts 360°
2026-05-06 03:51 17.89495 72.84140 26763 ft 434 kts 360°
2026-05-06 03:51 17.92460 72.84221 26278 ft 430 kts 360°
2026-05-06 03:51 17.95440 72.84302 25788 ft 426 kts 360°
2026-05-06 03:51 17.98395 72.84383 25309 ft 422 kts 360°
2026-05-06 03:52 18.01322 72.84463 24839 ft 419 kts
2026-05-06 03:52 18.04218 72.84542 24376 ft 415 kts
2026-05-06 03:52 18.07099 72.84621 23921 ft 412 kts
2026-05-06 03:52 18.09956 72.84699 23467 ft 409 kts
2026-05-06 03:53 18.12789 72.84777 22929 ft 405 kts
2026-05-06 03:53 18.15599 72.84854 22402 ft 402 kts
2026-05-06 03:53 18.18390 72.84930 21878 ft 400 kts
2026-05-06 03:53 18.21158 72.85006 21366 ft 397 kts
2026-05-06 03:54 18.23914 72.85082 20862 ft 395 kts
2026-05-06 03:54 18.26654 72.85157 20345 ft 393 kts
2026-05-06 03:54 18.29375 72.85232 19812 ft 390 kts
2026-05-06 03:54 18.32076 72.85306 19281 ft 387 kts
2026-05-06 03:55 18.34757 72.85379 18777 ft 385 kts
2026-05-06 03:55 18.37372 72.85452 18270 ft 382 kts
2026-05-06 03:55 18.40021 72.85525 17702 ft 380 kts
2026-05-06 03:55 18.42660 72.85597 17104 ft 378 kts
2026-05-06 03:56 18.45285 72.85669 16483 ft 376 kts
2026-05-06 03:56 18.47891 72.85741 15873 ft 374 kts
2026-05-06 03:56 18.50487 72.85812 15276 ft 372 kts
2026-05-06 03:56 18.53045 72.85882 14705 ft 371 kts
2026-05-06 03:57 18.55622 72.85953 14091 ft 370 kts
2026-05-06 03:57 18.58204 72.86023 13366 ft 371 kts
2026-05-06 03:57 18.60778 72.86093 12611 ft 369 kts
2026-05-06 03:57 18.63337 72.86162 11873 ft 367 kts
2026-05-06 03:58 18.65886 72.86231 11154 ft 365 kts
2026-05-06 03:58 18.68415 72.86299 10444 ft 363 kts
2026-05-06 03:58 18.70930 72.86368 9749 ft 360 kts
2026-05-06 03:58 18.73414 72.86437 9057 ft 352 kts
2026-05-06 03:59 18.75823 72.86503 8471 ft 341 kts
2026-05-06 03:59 18.78157 72.86567 7916 ft 330 kts
2026-05-06 03:59 18.80416 72.86629 7417 ft 319 kts
2026-05-06 03:59 18.82596 72.86689 6923 ft 308 kts
2026-05-06 04:00 18.84705 72.86748 6442 ft 299 kts
2026-05-06 04:00 18.86755 72.86806 5942 ft 291 kts
2026-05-06 04:00 18.88752 72.86863 5428 ft 283 kts
2026-05-06 04:00 18.90700 72.86920 4962 ft 276 kts
2026-05-06 04:01 18.92563 72.86974 4598 ft 265 kts
2026-05-06 04:01 18.94394 72.87026 4264 ft 264 kts
2026-05-06 04:01 18.96243 72.87077 3931 ft 267 kts
2026-05-06 04:01 18.98075 72.87128 3739 ft 259 kts
2026-05-06 04:02 18.99886 72.87177 3695 ft 262 kts
2026-05-06 04:02 19.01718 72.87229 3688 ft 263 kts
2026-05-06 04:02 19.03525 72.87278 3694 ft 255 kts
2026-05-06 04:02 19.05248 72.87327 3686 ft 238 kts
2026-05-06 04:03 19.06830 72.87373 3677 ft 217 kts
2026-05-06 04:03 19.08176 72.87828 3687 ft 196 kts 36°
2026-05-06 04:03 19.08983 72.88928 3694 ft 194 kts 68°
2026-05-06 04:03 19.09362 72.90292 3650 ft 190 kts 70°
2026-05-06 04:04 19.09773 72.91547 3627 ft 173 kts 68°
2026-05-06 04:04 19.10147 72.92706 3527 ft 159 kts 69°
2026-05-06 04:04 19.10462 72.93783 3430 ft 149 kts 70°
2026-05-06 04:04 19.10740 72.94826 3242 ft 147 kts 71°
2026-05-06 04:05 19.11000 72.95857 3017 ft 148 kts 73°
2026-05-06 04:05 19.11253 72.96910 2825 ft 147 kts 73°
2026-05-06 04:05 19.11496 72.97940 2820 ft 147 kts 73°
2026-05-06 04:05 19.11748 72.99003 2783 ft 144 kts 73°
2026-05-06 04:06 19.11990 73.00039 2796 ft 149 kts 73°
2026-05-06 04:06 19.12240 73.01097 2793 ft 147 kts 73°
2026-05-06 04:06 19.12488 73.02139 2797 ft 146 kts 73°
2026-05-06 04:06 19.12734 73.03175 2813 ft 149 kts 73°
2026-05-06 04:07 19.12984 73.04234 2806 ft 147 kts 73°
2026-05-06 04:07 19.13232 73.05283 2798 ft 147 kts 73°
2026-05-06 04:07 19.13480 73.06332 2789 ft 147 kts 74°
2026-05-06 04:07 19.13725 73.07381 2799 ft 147 kts 73°
2026-05-06 04:08 19.13940 73.08445 2793 ft 149 kts 87°
2026-05-06 04:08 19.13536 73.09429 2811 ft 156 kts 137°
2026-05-06 04:08 19.12533 73.09791 2806 ft 157 kts 187°
2026-05-06 04:08 19.11570 73.09325 2820 ft 155 kts 220°
2026-05-06 04:09 19.10767 73.08578 2801 ft 153 kts 226°
2026-05-06 04:09 19.10053 73.07756 2800 ft 152 kts 236°
2026-05-06 04:09 19.09561 73.06829 2809 ft 149 kts 251°
2026-05-06 04:09 19.09274 73.05771 2799 ft 149 kts 262°
2026-05-06 04:10 19.09151 73.04684 2800 ft 148 kts 269°
2026-05-06 04:10 19.09110 73.03630 2796 ft 138 kts 272°
2026-05-06 04:10 19.09093 73.02627 2657 ft 134 kts 272°
2026-05-06 04:10 19.09077 73.01639 2494 ft 135 kts 272°
2026-05-06 04:11 19.09063 73.00653 2337 ft 134 kts 271°
2026-05-06 04:11 19.09050 72.99670 2169 ft 133 kts 271°
2026-05-06 04:11 19.09036 72.98688 2004 ft 133 kts 271°
2026-05-06 04:11 19.09023 72.97724 1829 ft 133 kts 271°
2026-05-06 04:12 19.09009 72.96748 1659 ft 133 kts 271°
2026-05-06 04:12 19.08996 72.95773 1489 ft 132 kts 271°
2026-05-06 04:12 19.08982 72.94792 1316 ft 132 kts 271°
2026-05-06 04:12 19.08969 72.93825 1147 ft 133 kts 271°
2026-05-06 04:13 19.08956 72.92855 977 ft 132 kts 270°
2026-05-06 04:13 19.08942 72.91888 817 ft 131 kts 271°
2026-05-06 04:13 19.08929 72.90916 657 ft 131 kts 270°
2026-05-06 04:13 19.08916 72.89955 483 ft 131 kts 272°
2026-05-06 04:14 19.08901 72.89006 328 ft 130 kts 271°
2026-05-06 04:14 19.08886 72.88058 144 ft 129 kts 271°
2026-05-06 04:14 19.08876 72.87129 36 ft 119 kts 270°
2026-05-06 04:14 19.08873 72.86547 32 ft 38 kts 267°
2026-05-06 04:15 19.08865 72.86275 30 ft 40 kts 268°
2026-05-06 04:15 19.08860 72.85976 29 ft 43 kts 269°
2026-05-06 04:15 19.08884 72.85657 28 ft 43 kts 287°
2026-05-06 04:15 19.08941 72.85513 28 ft 0 kts 294°
2026-05-06 04:16 19.08944 72.85507 28 ft 4 kts 294°
2026-05-06 04:16 19.08961 72.85465 29 ft 6 kts 294°
2026-05-06 04:16 19.08961 72.85464 29 ft 0 kts 294°
2026-05-06 04:17 19.08967 72.85450 29 ft 4 kts 293°
2026-05-06 04:17 19.08994 72.85413 29 ft 8 kts 325°
2026-05-06 04:17 19.09059 72.85400 29 ft 11 kts 351°
2026-05-06 04:18 19.09066 72.85397 29 ft 0 kts 338°
2026-05-06 04:18 19.09067 72.85397 29 ft 1 kts 339°
2026-05-06 04:18 19.09090 72.85399 29 ft 5 kts 14°
2026-05-06 04:18 19.09139 72.85408 30 ft 8 kts
2026-05-06 04:19 19.09164 72.85408 31 ft 0 kts 359°